BEIDOU-3 M14 (C33)

Last updated on Fri Dec 12 2025 00:03:28 GMT+0000 (Coordinated Universal Time)

1 43623U 18072B 25343.85611323 -.00000051 00000+0 00000+0 0 9997 2 43623 56.4585 68.9098 0003229 335.6302 24.3775 1.86230666 49123
UTC large
Height (km)
Speed (km/s)
/
Latitude / Longitude
Inclination (degrees)
Orbital Period (minutes)
Azimuth
Elevation
Range (km)
Doppler Factor

Next 0 passes for location: London (51.5072 / 0.1276)

Sorry there are no passes over London.